TIANTONG-1 2

Last updated on Sun Oct 06 2024 00:02:42 GMT+0000 (Coordinated Universal Time)

1 46916U 20082A 24279.59033937 -.00000348 00000+0 00000+0 0 9995 2 46916 2.0889 294.4383 0003432 312.8780 104.8652 1.00269365 14440
UTC large
Height (km)
Speed (km/s)
/
Latitude / Longitude
Inclination (degrees)
Orbital Period (minutes)
Azimuth
Elevation
Range (km)
Doppler Factor

Next 0 passes for location: London (51.5072 / 0.1276)

Sorry there are no passes over London.